FW1417 Hoboken NJ US current weather conditions

sailwx.info

Wind from 259 at 4 knots gusting 15

Air temperature 3.3° C
Dewpoint -3.9° C

Last reported at 2019-Dec-06 02:07 UTC.
Time now 2019-Dec-06 03:14 UTC

Location: N 40°45' W 074°02'.
View on Google Maps.

See reports from other nearby stations

  
Tides and Currents Weather Stations Pressure Air Temp Water Temp Dewpoint Dewpoint Depression Visibility Wind Speed Wind Dir Waves Ship Positions
date/time (UTC)wind fromknots sea level pressurealtimeterstation pressurevisibilityair tempwater tempwave heightnotes
2019-Dec-06 02:07 259 4 gusting 15 3.3
2019-Dec-06 02:02 260 3 gusting 15 3.3
2019-Dec-06 01:52 275 3 gusting 10 3.3
2019-Dec-06 01:47 254 2 gusting 11 3.3
2019-Dec-06 01:42 261 4 gusting 12 3.3
2019-Dec-06 01:37 311 4 gusting 17 3.3
2019-Dec-06 01:32 281 5 gusting 17 3.3
2019-Dec-06 01:27 221 3 gusting 12 3.3
2019-Dec-06 01:22 240 2 gusting 15 3.3
2019-Dec-06 01:17 261 6 gusting 15 3.3
2019-Dec-06 01:12 271 3 gusting 13 3.3
2019-Dec-06 01:07 318 5 gusting 13 3.3
2019-Dec-06 01:02 202 4 gusting 10 3.3
2019-Dec-06 00:57 273 3 gusting 10 3.3
2019-Dec-06 00:52 264 3 gusting 12 3.3
2019-Dec-06 00:47 291 4 gusting 12 3.3
2019-Dec-06 00:42 275 4 gusting 12 3.3
2019-Dec-06 00:37 236 4 gusting 11 3.3
2019-Dec-06 00:32 271 6 gusting 10 3.3
2019-Dec-06 00:27 269 5 gusting 10 3.3
2019-Dec-06 00:22 230 2 gusting 10 3.3
2019-Dec-06 00:17 249 4 gusting 10 3.3
2019-Dec-06 00:12 238 2 gusting 8 3.3
2019-Dec-06 00:07 245 3 gusting 10 3.3
2019-Dec-06 00:02 261 4 gusting 10 3.3
2019-Dec-05 23:57 291 2 gusting 8 3.3
2019-Dec-05 23:52 282 3 gusting 13 3.3
2019-Dec-05 23:47 263 4 gusting 13 3.9
2019-Dec-05 23:42 242 5 gusting 12 3.9
2019-Dec-05 23:37 250 5 gusting 12 3.9
2019-Dec-05 23:32 335 4 gusting 12 3.9
2019-Dec-05 23:27 258 6 gusting 11 3.9
2019-Dec-05 23:22 264 2 gusting 10 3.9
2019-Dec-05 23:17 267 6 gusting 10 3.9
2019-Dec-05 23:12 274 4 gusting 11 3.9
2019-Dec-05 23:07 247 5 gusting 11 3.9
2019-Dec-05 23:02 257 4 gusting 10 3.9
2019-Dec-05 22:57 241 3 gusting 10 3.9
2019-Dec-05 22:52 273 5 gusting 11 3.9
2019-Dec-05 22:47 247 4 gusting 11 3.9
2019-Dec-05 22:42 253 6 gusting 10 3.9
2019-Dec-05 22:37 261 3 gusting 10 3.9
2019-Dec-05 22:32 265 2 gusting 12 3.9
2019-Dec-05 22:27 247 6 gusting 12 3.9
2019-Dec-05 22:22 257 5 gusting 10 3.9
2019-Dec-05 22:17 261 5 gusting 12 3.9
2019-Dec-05 22:12 279 5 gusting 13 3.9
2019-Dec-05 22:07 263 5 gusting 13 4.4
2019-Dec-05 22:02 248 5 gusting 13 4.4
2019-Dec-05 21:57 258 2 gusting 13 4.4
2019-Dec-05 21:52 290 6 gusting 13 4.4
2019-Dec-05 21:47 276 5 gusting 13 4.4
2019-Dec-05 21:42 288 6 gusting 13 4.4
2019-Dec-05 21:37 265 5 gusting 10 4.4
2019-Dec-05 21:32 227 4 gusting 12 4.4
2019-Dec-05 21:27 256 6 gusting 12 4.4
2019-Dec-05 21:22 259 4 gusting 11 4.4
2019-Dec-05 21:17 250 4 gusting 11 4.4
2019-Dec-05 21:12 248 6 gusting 10 4.4
2019-Dec-05 21:07 251 5 gusting 13 3.9
2019-Dec-05 21:02 259 6 gusting 13 3.9
2019-Dec-05 20:57 268 7 gusting 13 3.9
2019-Dec-05 20:52 244 2 gusting 12 4.4
2019-Dec-05 20:47 250 6 gusting 13 4.4
2019-Dec-05 20:42 248 6 gusting 15 4.4
2019-Dec-05 20:37 260 5 gusting 15 4.4
2019-Dec-05 20:32 258 5 gusting 13 5.0
2019-Dec-05 20:27 249 5 gusting 13 5.0
2019-Dec-05 20:22 272 5 gusting 13 5.0
2019-Dec-05 20:17 240 6 gusting 13 5.0
2019-Dec-05 20:12 256 6 gusting 13 5.0
2019-Dec-05 20:07 260 6 gusting 14 5.0
2019-Dec-05 20:02 247 6 gusting 14 5.0
2019-Dec-05 19:57 279 7 gusting 13 5.6
2019-Dec-05 19:52 270 6 gusting 13 5.6
2019-Dec-05 19:47 254 6 gusting 13 5.6
2019-Dec-05 19:42 295 5 gusting 13 5.6
2019-Dec-05 19:37 265 5 gusting 13 5.6
2019-Dec-05 19:32 311 6 gusting 13 5.6
2019-Dec-05 19:27 278 5 gusting 13 5.6
2019-Dec-05 19:22 264 4 gusting 13 5.6
2019-Dec-05 19:17 270 2 gusting 13 5.6
2019-Dec-05 19:12 274 6 gusting 13 5.6
2019-Dec-05 19:07 320 5 gusting 12 5.6
2019-Dec-05 19:02 281 6 gusting 12 5.6
2019-Dec-05 18:57 310 5 gusting 11 5.6
2019-Dec-05 18:52 278 6 gusting 17 5.6
2019-Dec-05 18:47 284 6 gusting 17 5.6
2019-Dec-05 18:42 317 8 gusting 19 5.6
2019-Dec-05 18:37 280 10 gusting 20 5.6
2019-Dec-05 18:32 283 7 gusting 20 5.6
2019-Dec-05 18:27 296 6 gusting 15 5.6
2019-Dec-05 18:22 277 8 gusting 17 5.6
2019-Dec-05 18:17 313 4 gusting 18 5.6
2019-Dec-05 18:12 283 7 gusting 25 5.6
2019-Dec-05 18:07 297 8 gusting 25 6.1
2019-Dec-05 18:02 307 11 gusting 20 6.1
2019-Dec-05 17:57 261 6 gusting 15 6.1
2019-Dec-05 17:52 297 8 gusting 15 6.1
2019-Dec-05 17:47 294 6 gusting 17 6.1
2019-Dec-05 17:42 301 6 gusting 17 6.1
2019-Dec-05 17:37 336 6 gusting 13 6.1
2019-Dec-05 17:32 344 4 gusting 14 6.1
2019-Dec-05 17:27 327 8 gusting 14 6.1
2019-Dec-05 17:22 248 4 gusting 12 5.6
2019-Dec-05 17:17 249 5 gusting 13 5.6
2019-Dec-05 17:12 297 6 gusting 17 5.6
2019-Dec-05 17:07 348 4 gusting 17 5.6
2019-Dec-05 17:02 305 5 gusting 17 5.6
2019-Dec-05 16:57 294 5 gusting 17 5.6
2019-Dec-05 16:52 267 8 gusting 18 5.6
2019-Dec-05 16:47 314 7 gusting 18 5.6
2019-Dec-05 16:42 310 4 gusting 19 5.6
2019-Dec-05 16:37 287 6 gusting 19 5.6
2019-Dec-05 16:32 278 7 gusting 19 5.6
2019-Dec-05 16:27 256 9 gusting 17 5.6
2019-Dec-05 16:22 268 11 gusting 17 5.6
2019-Dec-05 16:17 294 3 gusting 15 5.6
2019-Dec-05 16:12 303 6 gusting 19 5.6
2019-Dec-05 16:07 290 9 gusting 19 5.0
2019-Dec-05 16:02 254 7 gusting 17 5.0
2019-Dec-05 15:57 260 5 gusting 17 5.6
2019-Dec-05 15:52 258 6 gusting 17 5.6
2019-Dec-05 15:47 304 6 gusting 17 6.1
2019-Dec-05 15:42 285 5 gusting 13 6.1
2019-Dec-05 15:37 313 6 gusting 15 6.1
2019-Dec-05 15:32 242 4 gusting 15 6.1
2019-Dec-05 15:27 261 8 gusting 15 6.1
2019-Dec-05 15:22 251 10 gusting 15 6.1
2019-Dec-05 15:17 263 6 gusting 13 6.1
2019-Dec-05 15:12 256 6 gusting 13 6.1
2019-Dec-05 15:07 249 4 gusting 13 5.6
2019-Dec-05 15:02 313 6 gusting 13 5.6
2019-Dec-05 14:57 270 5 gusting 14 5.6
2019-Dec-05 14:52 264 5 gusting 14 5.6
2019-Dec-05 14:47 261 4 gusting 14 5.6
2019-Dec-05 14:42 273 5 gusting 13 5.0
2019-Dec-05 14:37 228 5 gusting 10 5.0
2019-Dec-05 14:32 254 4 gusting 12 5.0
2019-Dec-05 14:27 236 4 gusting 12 5.0
2019-Dec-05 14:22 252 6 gusting 12 4.4
2019-Dec-05 14:17 239 4 gusting 10 4.4
2019-Dec-05 14:12 251 4 gusting 8 4.4
2019-Dec-05 14:07 250 3 gusting 11 4.4
2019-Dec-05 14:02 270 4 gusting 11 4.4
2019-Dec-05 13:57 274 4 gusting 10 4.4
2019-Dec-05 13:52 259 4 gusting 10 4.4
2019-Dec-05 13:47 226 5 gusting 10 3.9
2019-Dec-05 13:42 250 4 gusting 8 3.9
2019-Dec-05 13:37 270 3 gusting 8 3.9
2019-Dec-05 13:32 253 4 gusting 8 3.9
2019-Dec-05 13:27 251 4 gusting 8 3.9
2019-Dec-05 13:22 230 1 gusting 6 3.9
2019-Dec-05 13:17 250 3 gusting 7 3.9
2019-Dec-05 13:12 234 2 gusting 7 3.9
2019-Dec-05 13:07 259 3 gusting 7 3.3
2019-Dec-05 13:02 214 2 gusting 7 3.3
2019-Dec-05 12:57 254 2 gusting 7 3.3
2019-Dec-05 12:52 247 2 gusting 6 3.3
2019-Dec-05 12:47 229 2 gusting 7 3.3
2019-Dec-05 12:42 195 2 gusting 7 3.3
2019-Dec-05 12:37 256 2 gusting 6 3.3
2019-Dec-05 12:32 263 4 gusting 7 3.3
2019-Dec-05 12:27 238 3 gusting 10 3.3
2019-Dec-05 12:22 250 5 gusting 10 3.3
2019-Dec-05 12:17 251 3 gusting 7 3.3
2019-Dec-05 12:12 245 2 gusting 7 3.3
2019-Dec-05 12:07 210 1 gusting 7 3.3
2019-Dec-05 12:02 258 4 gusting 8 3.3
2019-Dec-05 11:57 234 2 gusting 10 3.3
2019-Dec-05 11:52 246 3 gusting 10 3.3
2019-Dec-05 11:47 230 5 gusting 10 3.3
2019-Dec-05 11:42 263 3 gusting 8 3.3
2019-Dec-05 11:37 227 4 gusting 8 3.3
2019-Dec-05 11:32 240 5 gusting 10 3.3
2019-Dec-05 11:27 225 4 gusting 10 3.3
2019-Dec-05 11:22 258 4 gusting 8 3.3
2019-Dec-05 11:17 242 4 gusting 10 3.3
2019-Dec-05 11:12 260 2 gusting 10 3.3
2019-Dec-05 11:07 245 4 gusting 8 2.8
2019-Dec-05 11:02 253 4 gusting 6 2.8
2019-Dec-05 10:57 262 3 gusting 6 2.8
2019-Dec-05 10:52 260 2 gusting 6 2.8
2019-Dec-05 10:47 204 0 gusting 6 2.8
2019-Dec-05 10:42 251 1 gusting 6 2.8
2019-Dec-05 10:37 257 1 gusting 5 2.8
2019-Dec-05 10:32 216 1 gusting 4 2.8
2019-Dec-05 10:27 223 1 gusting 6 2.8
2019-Dec-05 10:22 270 2 gusting 6 2.8
2019-Dec-05 10:17 283 1 gusting 6 2.8
2019-Dec-05 10:12 261 0 gusting 6 2.8
2019-Dec-05 10:07 284 2 gusting 6 2.8
2019-Dec-05 10:02 271 1 gusting 5 2.8
2019-Dec-05 09:57 263 1 gusting 5 2.8
2019-Dec-05 09:52 270 2.8
2019-Dec-05 09:47 257 2 gusting 6 2.8
2019-Dec-05 09:42 257 1 gusting 6 2.8
2019-Dec-05 09:37 250 0 gusting 2 2.8
2019-Dec-05 09:32 250 0 gusting 2 2.8
2019-Dec-05 09:27 248 1 gusting 2 2.8
2019-Dec-05 09:22 245 0 gusting 4 2.8
2019-Dec-05 09:17 248 2 gusting 6 2.8
2019-Dec-05 09:12 217 1 gusting 6 2.2
2019-Dec-05 09:07 264 1 gusting 6 2.2
2019-Dec-05 09:02 259 2.2
2019-Dec-05 08:57 247 2 gusting 5 2.2
2019-Dec-05 08:52 261 1 gusting 6 2.2
2019-Dec-05 08:47 250 1 gusting 6 2.2
2019-Dec-05 08:42 231 1 gusting 6 2.2
2019-Dec-05 08:37 259 1 gusting 6 2.2
2019-Dec-05 08:32 235 1 gusting 5 2.2
2019-Dec-05 08:27 250 2 gusting 6 2.8
2019-Dec-05 08:22 245 1 gusting 6 2.8
2019-Dec-05 08:17 240 0 gusting 5 2.8
2019-Dec-05 08:12 227 2.8
2019-Dec-05 08:07 247 1 gusting 6 2.8
2019-Dec-05 08:02 231 0 gusting 6 2.8
2019-Dec-05 07:57 265 1 gusting 6 2.8
2019-Dec-05 07:52 225 1 gusting 2 2.8
2019-Dec-05 07:47 220 2.8
2019-Dec-05 07:42 220 2.8
2019-Dec-05 07:37 220 0 gusting 2 2.8
2019-Dec-05 07:32 218 0 gusting 2 2.8
2019-Dec-05 07:27 218 0 gusting 2 2.8
2019-Dec-05 07:22 217 0 gusting 4 2.8
2019-Dec-05 07:17 215 2.8
2019-Dec-05 07:12 279 0 gusting 2 2.8
2019-Dec-05 07:07 211 2.8
2019-Dec-05 07:02 211 0 gusting 1 2.8
2019-Dec-05 06:57 211 0 gusting 1 2.8
2019-Dec-05 06:52 215 2.8
2019-Dec-05 06:47 215 0 gusting 2 2.8
2019-Dec-05 06:42 213 1 gusting 2 2.8
2019-Dec-05 06:37 215 2.8
2019-Dec-05 06:32 215 2.8
2019-Dec-05 06:27 215 0 gusting 5 2.8
2019-Dec-05 06:22 209 2 gusting 5 2.8
2019-Dec-05 06:17 206 1 gusting 5 2.8
2019-Dec-05 06:12 225 2 gusting 5 2.8
2019-Dec-05 06:07 218 1 gusting 5 2.8
2019-Dec-05 06:02 197 1 gusting 4 2.8
2019-Dec-05 05:57 256 1 gusting 5 2.8
2019-Dec-05 05:52 224 2 gusting 6 2.8
2019-Dec-05 05:47 227 0 gusting 6 2.8
2019-Dec-05 05:42 227 2 gusting 7 2.8
2019-Dec-05 05:37 230 4 gusting 7 2.8
2019-Dec-05 05:32 242 1 gusting 7 2.8
2019-Dec-05 05:27 238 2 gusting 10 2.8
2019-Dec-05 05:22 233 4 gusting 10 2.8
2019-Dec-05 05:17 213 1 gusting 7 2.8
2019-Dec-05 05:12 215 4 gusting 8 2.8
2019-Dec-05 05:07 193 2 gusting 8 3.3
2019-Dec-05 05:02 195 2 gusting 8 3.3
2019-Dec-05 04:52 196 2 gusting 5 3.3
2019-Dec-05 04:47 251 1 gusting 10 3.3
2019-Dec-05 04:42 186 5 gusting 10 3.3
2019-Dec-05 04:37 243 2 gusting 8 3.3
2019-Dec-05 04:32 216 5 gusting 8 3.3
2019-Dec-05 04:27 232 2 gusting 8 3.3
2019-Dec-05 04:22 163 2 gusting 8 3.3
2019-Dec-05 04:17 238 4 gusting 8 3.3
2019-Dec-05 04:12 215 1 gusting 7 3.3
2019-Dec-05 04:07 236 2 gusting 7 3.3
2019-Dec-05 04:02 220 2 gusting 7 3.3
2019-Dec-05 03:57 227 3 gusting 6 3.3
2019-Dec-05 03:52 234 2 gusting 7 3.3
2019-Dec-05 03:47 239 3 gusting 10 3.3
2019-Dec-05 03:42 229 4 gusting 13 3.3
2019-Dec-05 03:37 230 4 gusting 13 3.3
2019-Dec-05 03:32 227 4 gusting 10 3.3
2019-Dec-05 03:27 217 4 gusting 11 3.3
2019-Dec-05 03:22 236 5 gusting 11 3.3
2019-Dec-05 03:17 194 2 gusting 10 3.3
2019-Dec-05 03:12 206 3 gusting 10 3.3
2019-Dec-05 03:07 216 4 gusting 10 3.3
2019-Dec-05 03:02 236 3 gusting 6 3.3
2019-Dec-05 02:57 224 2 gusting 6 3.3
2019-Dec-05 02:52 215 2 gusting 6 3.3
2019-Dec-05 02:47 223 1 gusting 6 3.9
2019-Dec-05 02:42 188 1 gusting 7 3.9
2019-Dec-05 02:37 217 3 gusting 7 3.9
2019-Dec-05 02:32 198 2 gusting 7 3.9
2019-Dec-05 02:27 186 1 gusting 7 3.9
2019-Dec-05 02:22 235 3 gusting 7 3.9
2019-Dec-05 02:17 225 3 gusting 7 3.9
2019-Dec-05 02:12 204 2 gusting 8 3.9
2019-Dec-05 02:07 223 2 gusting 8 3.9
2019-Dec-05 02:02 209 3 gusting 10 3.9
2019-Dec-05 01:57 209 2 gusting 10 3.9
2019-Dec-05 01:52 203 2 gusting 7 3.9
2019-Dec-05 01:47 202 1 gusting 7 3.9
2019-Dec-05 01:42 223 1 gusting 7 3.9
2019-Dec-05 01:37 206 3 gusting 7 3.9
2019-Dec-05 01:32 207 2 gusting 7 3.9
2019-Dec-05 01:27 198 2 gusting 7 3.9
2019-Dec-05 01:22 206 2 gusting 6 3.9
2019-Dec-05 01:17 240 2 gusting 6 3.9
2019-Dec-05 01:12 228 3 gusting 10 3.9
2019-Dec-05 01:07 248 4 gusting 10 3.9
2019-Dec-05 01:02 220 4 gusting 10 3.9
2019-Dec-05 00:57 234 2 gusting 10 3.9
2019-Dec-05 00:52 204 3 gusting 10 3.9
2019-Dec-05 00:47 225 3 gusting 8 3.9
2019-Dec-05 00:42 223 2 gusting 10 3.9
2019-Dec-05 00:37 222 3 gusting 10 3.9
2019-Dec-05 00:32 233 3 gusting 10 3.9
2019-Dec-05 00:27 236 5 gusting 10 3.9
2019-Dec-05 00:22 229 2 gusting 8 3.9
2019-Dec-05 00:17 223 4 gusting 8 3.9
2019-Dec-05 00:12 199 1 gusting 11 3.9
2019-Dec-05 00:07 226 3 gusting 11 3.9
2019-Dec-05 00:02 232 5 gusting 11 3.9
2019-Dec-04 23:57 204 2 gusting 8 3.9
2019-Dec-04 23:52 233 4 gusting 6 3.9
2019-Dec-04 23:47 217 2 gusting 5 3.9
2019-Dec-04 23:42 207 2 gusting 5 3.9
2019-Dec-04 23:37 224 2 gusting 6 3.9
2019-Dec-04 23:32 228 1 gusting 6 3.9
2019-Dec-04 23:27 237 1 gusting 6 3.9
2019-Dec-04 23:22 223 1 gusting 6 3.9
2019-Dec-04 23:17 224 1 gusting 6 3.9
2019-Dec-04 23:12 235 2 gusting 6 3.9
2019-Dec-04 23:07 234 3 gusting 6 3.9
2019-Dec-04 23:02 279 4 gusting 6 3.9
2019-Dec-04 22:57 218 2 gusting 6 3.9
2019-Dec-04 22:52 236 1 gusting 5 3.9
2019-Dec-04 22:47 229 1 gusting 8 3.9
2019-Dec-04 22:42 225 3 gusting 8 3.9
2019-Dec-04 22:37 218 3 gusting 10 3.9
2019-Dec-04 22:32 228 4 gusting 10 3.9
2019-Dec-04 22:27 226 3 gusting 7 3.9
2019-Dec-04 22:22 214 4 gusting 8 3.9
2019-Dec-04 22:17 237 4 gusting 8 3.9
2019-Dec-04 22:12 244 1 gusting 7 3.9
2019-Dec-04 22:07 190 2 gusting 6 3.9
2019-Dec-04 22:02 236 2 gusting 6 3.9
2019-Dec-04 21:57 214 4 gusting 10 3.9
2019-Dec-04 21:52 227 4 gusting 10 3.9
2019-Dec-04 21:47 220 2 gusting 10 3.9
2019-Dec-04 21:42 225 4 gusting 10 3.9
2019-Dec-04 21:37 225 5 gusting 10 3.9
2019-Dec-04 21:32 211 3 gusting 10 3.9
2019-Dec-04 21:27 212 3 gusting 7 3.9
2019-Dec-04 21:22 200 2 gusting 8 3.9
2019-Dec-04 21:17 189 2 gusting 8 3.9
2019-Dec-04 21:12 226 2 gusting 7 3.9
2019-Dec-04 21:07 217 2 gusting 7 3.9
2019-Dec-04 21:02 257 3 gusting 8 3.9
2019-Dec-04 20:57 233 3 gusting 8 3.9
2019-Dec-04 20:52 231 4 gusting 8 3.9
2019-Dec-04 20:47 234 4 gusting 8 3.9
2019-Dec-04 20:42 216 3 gusting 8 3.9
2019-Dec-04 20:37 219 2 gusting 7 3.9
2019-Dec-04 20:32 220 2 gusting 8 3.9
2019-Dec-04 20:27 208 2 gusting 8 3.9
2019-Dec-04 20:22 231 3 gusting 8 3.9
2019-Dec-04 20:17 224 2 gusting 7 3.9
2019-Dec-04 20:12 228 5 gusting 7 3.9
2019-Dec-04 20:07 209 4 gusting 7 3.9
2019-Dec-04 20:02 208 2 gusting 6 3.9
2019-Dec-04 19:57 244 3 gusting 6 3.9
2019-Dec-04 19:52 234 2 gusting 10 3.9
2019-Dec-04 19:47 256 5 gusting 10 3.9
2019-Dec-04 19:42 230 3 gusting 8 3.9
2019-Dec-04 19:32 208 5 gusting 6 3.9
2019-Dec-04 19:27 224 3 gusting 7 3.9
2019-Dec-04 19:22 217 2 gusting 10 3.9
2019-Dec-04 19:17 229 4 gusting 10 3.9
2019-Dec-04 19:12 200 2 gusting 5 3.9
2019-Dec-04 19:07 207 2 gusting 6 3.9
2019-Dec-04 19:02 214 2 gusting 10 3.9
2019-Dec-04 18:57 245 3 gusting 10 3.9
2019-Dec-04 18:52 225 2 gusting 8 3.9
2019-Dec-04 18:47 233 4 gusting 8 3.9
2019-Dec-04 18:42 239 1 gusting 6 3.9
2019-Dec-04 18:37 232 1 gusting 8 3.9
2019-Dec-04 18:32 215 3 gusting 8 3.9
2019-Dec-04 18:27 226 1 gusting 4 3.3
2019-Dec-04 18:22 236 1 gusting 6 3.3
2019-Dec-04 18:17 282 2 gusting 6 3.3
2019-Dec-04 18:12 226 2 gusting 5 3.3
2019-Dec-04 18:07 223 1 gusting 5 3.3
2019-Dec-04 18:02 202 1 gusting 5 3.3
2019-Dec-04 17:57 223 1 gusting 6 3.3
2019-Dec-04 17:52 243 2 gusting 6 3.3
2019-Dec-04 17:47 211 2 gusting 6 3.3
2019-Dec-04 17:42 232 1 gusting 6 3.3
2019-Dec-04 17:37 227 2 gusting 6 3.3
2019-Dec-04 17:32 236 1 gusting 6 3.3
2019-Dec-04 17:27 238 4 gusting 8 3.3
2019-Dec-04 17:22 243 3 gusting 8 3.3
2019-Dec-04 17:17 231 2 gusting 7 3.3
2019-Dec-04 17:12 213 2 gusting 7 3.3
2019-Dec-04 17:07 221 5 gusting 6 3.3
2019-Dec-04 17:02 225 1 gusting 6 3.3
2019-Dec-04 16:57 230 2 gusting 6 3.3
2019-Dec-04 16:52 251 3 gusting 6 3.3
2019-Dec-04 16:47 237 1 gusting 6 3.3
2019-Dec-04 16:42 263 2 gusting 6 3.3
2019-Dec-04 16:37 251 3 gusting 6 3.3
2019-Dec-04 16:32 274 2 gusting 7 3.3
2019-Dec-04 16:27 203 2 gusting 7 3.3
2019-Dec-04 16:22 248 2 gusting 6 3.3
2019-Dec-04 16:17 221 2 gusting 6 3.3
2019-Dec-04 16:12 219 4 gusting 6 3.3
2019-Dec-04 16:07 217 2 gusting 6 3.3
2019-Dec-04 16:02 262 1 gusting 6 2.8
2019-Dec-04 15:57 238 2 gusting 6 2.8
2019-Dec-04 15:52 210 2 gusting 6 2.8
2019-Dec-04 15:47 211 2 gusting 6 2.8
2019-Dec-04 15:42 209 2 gusting 10 2.8
2019-Dec-04 15:37 230 2 gusting 11 2.8
2019-Dec-04 15:32 215 6 gusting 11 2.8
2019-Dec-04 15:27 219 3 gusting 10 2.8
2019-Dec-04 15:22 210 2 gusting 8 2.8
2019-Dec-04 15:17 229 4 gusting 8 2.8
2019-Dec-04 15:12 215 5 gusting 8 2.8
2019-Dec-04 15:07 218 2 gusting 7 2.8
2019-Dec-04 15:02 231 2 gusting 6 2.8
2019-Dec-04 14:57 207 2 gusting 7 2.8
2019-Dec-04 14:52 215 2 gusting 11 2.8
2019-Dec-04 14:47 205 3 gusting 11 2.8
2019-Dec-04 14:42 229 4 gusting 12 2.8
2019-Dec-04 14:37 229 2 gusting 12 2.8
2019-Dec-04 14:32 203 2 gusting 6 2.8
2019-Dec-04 14:27 214 2 gusting 5 2.2
2019-Dec-04 14:22 210 1 gusting 5 2.2
2019-Dec-04 14:17 248 1 gusting 10 2.2
2019-Dec-04 14:12 188 2 gusting 10 2.2
2019-Dec-04 14:07 240 4 gusting 10 2.2
2019-Dec-04 14:02 215 5 gusting 10 2.2
2019-Dec-04 13:57 229 4 gusting 10 2.2
2019-Dec-04 13:52 224 2 gusting 8 2.2
2019-Dec-04 13:47 221 2 gusting 6 2.2
2019-Dec-04 13:42 229 2 gusting 8 2.2
2019-Dec-04 13:37 218 4 gusting 8 2.2
2019-Dec-04 13:32 209 2 gusting 6 2.2
2019-Dec-04 13:27 201 3 gusting 6 2.2
2019-Dec-04 13:22 264 2 gusting 6 2.2
2019-Dec-04 13:17 190 1 gusting 5 2.2
2019-Dec-04 13:12 195 2 gusting 5 2.2
2019-Dec-04 13:07 221 1 gusting 8 2.2
2019-Dec-04 13:02 228 1 gusting 8 2.2
2019-Dec-04 12:57 211 3 gusting 8 2.2
2019-Dec-04 12:52 167 2 gusting 6 2.2
2019-Dec-04 12:47 234 2 gusting 6 2.2
2019-Dec-04 12:42 207 2 gusting 7 2.2
2019-Dec-04 12:37 208 2 gusting 7 2.2
2019-Dec-04 12:32 209 3 gusting 10 2.2
2019-Dec-04 12:27 242 2 gusting 10 2.2
2019-Dec-04 12:22 215 3 gusting 10 2.2
2019-Dec-04 12:17 192 2 gusting 7 2.2
2019-Dec-04 12:12 211 4 gusting 7 2.2
2019-Dec-04 12:07 202 2 gusting 6 2.2
2019-Dec-04 12:02 211 2 gusting 7 2.2
2019-Dec-04 11:57 232 2 gusting 10 2.2
2019-Dec-04 11:52 230 4 gusting 10 2.2
2019-Dec-04 11:47 216 1 gusting 10 2.2
2019-Dec-04 11:42 219 3 gusting 10 1.7
2019-Dec-04 11:37 213 4 gusting 6 1.7
2019-Dec-04 11:32 221 2 gusting 10 1.7
2019-Dec-04 11:27 220 4 gusting 10 1.7
2019-Dec-04 11:22 196 2 gusting 5 1.7
2019-Dec-04 11:17 230 2 gusting 5 1.7
2019-Dec-04 11:12 200 1 gusting 5 1.7
2019-Dec-04 11:07 209 0 gusting 6 1.7
2019-Dec-04 11:02 215 1 gusting 6 1.7
2019-Dec-04 10:57 204 2 gusting 6 1.7
2019-Dec-04 10:52 218 1 gusting 5 1.7
2019-Dec-04 10:47 217 1 gusting 4 1.7
2019-Dec-04 10:42 215 2 gusting 4 1.7
2019-Dec-04 10:37 215 1.7
2019-Dec-04 10:32 219 0 gusting 4 1.7
2019-Dec-04 10:27 222 2 gusting 5 1.7
2019-Dec-04 10:22 215 2 gusting 5 1.7
2019-Dec-04 10:17 173 1 gusting 5 1.7
2019-Dec-04 10:12 208 0 gusting 2 1.7
2019-Dec-04 10:07 210 1 gusting 2 1.1
2019-Dec-04 10:02 208 0 gusting 4 1.1
2019-Dec-04 09:57 212 1 gusting 4 1.1
2019-Dec-04 09:52 214 1 gusting 2 1.1
2019-Dec-04 09:47 217 1.1
2019-Dec-04 09:42 217 0 gusting 2 1.1
2019-Dec-04 09:37 216 0 gusting 4 1.1
2019-Dec-04 09:32 216 1 gusting 4 1.1
2019-Dec-04 09:27 217 1.1
2019-Dec-04 09:22 217 0 gusting 2 1.1
2019-Dec-04 09:17 217 1.1
2019-Dec-04 09:12 217 1.1
2019-Dec-04 09:07 217 0 gusting 2 1.1
2019-Dec-04 09:02 217 0 gusting 2 1.1
2019-Dec-04 08:57 217 0 gusting 2 1.1
2019-Dec-04 08:52 217 0 gusting 6 1.1
2019-Dec-04 08:47 217 1 gusting 6 1.1
2019-Dec-04 08:42 220 2 gusting 5 1.1
2019-Dec-04 08:37 220 1 gusting 5 1.1
2019-Dec-04 08:32 215 1 gusting 5 1.1
2019-Dec-04 08:27 213 0 gusting 6 1.1
2019-Dec-04 08:22 206 1 gusting 6 1.1
2019-Dec-04 08:17 206 2 gusting 6 1.1
2019-Dec-04 08:12 219 2 gusting 5 1.1
2019-Dec-04 08:07 231 2 gusting 5 1.1
2019-Dec-04 08:02 215 0 gusting 2 1.1
2019-Dec-04 07:57 215 0 gusting 2 1.1
2019-Dec-04 07:52 215 1.1
2019-Dec-04 07:47 215 0 gusting 2 1.1
2019-Dec-04 07:37 215 1 gusting 4 1.1
2019-Dec-04 07:32 207 1 gusting 5 0.6
2019-Dec-04 07:27 237 1 gusting 6 0.6
2019-Dec-04 07:22 225 2 gusting 6 0.6
2019-Dec-04 07:17 237 2 gusting 6 0.6
2019-Dec-04 07:12 226 1 gusting 2 0.6
2019-Dec-04 07:07 227 1 gusting 2 0.6
2019-Dec-04 07:02 228 2 gusting 2 0.6
2019-Dec-04 06:57 227 0 gusting 4 0.6
2019-Dec-04 06:52 227 1 gusting 4 0.6
2019-Dec-04 06:47 223 2 gusting 4 0.6
2019-Dec-04 06:42 222 0 gusting 6 0.6
2019-Dec-04 06:37 223 1 gusting 6 0.6
2019-Dec-04 06:32 217 2 gusting 5 0.6
2019-Dec-04 06:27 215 1 gusting 4 0.6
2019-Dec-04 06:22 202 1 gusting 4 0.6
2019-Dec-04 06:17 182 0 gusting 6 0.6
2019-Dec-04 06:12 194 2 gusting 7 0.6
2019-Dec-04 06:07 224 3 gusting 7 -0.0
2019-Dec-04 06:02 228 3 gusting 6 -0.0
2019-Dec-04 05:57 221 1 gusting 6 -0.0
2019-Dec-04 05:52 211 1 gusting 4 -0.0
2019-Dec-04 05:47 206 1 gusting 4 -0.0
2019-Dec-04 05:42 205 0 gusting 2 -0.0
2019-Dec-04 05:37 205 0.6
2019-Dec-04 05:32 205 0.6
2019-Dec-04 05:27 205 0 gusting 2 0.6
2019-Dec-04 05:22 205 0 gusting 2 0.6
2019-Dec-04 05:17 205 0 gusting 2 0.6
2019-Dec-04 05:12 205 0 gusting 2 0.6
2019-Dec-04 05:07 205 1 gusting 2 0.6
2019-Dec-04 05:02 205 1 gusting 2 0.6
2019-Dec-04 04:52 198 0 gusting 2 0.6
2019-Dec-04 04:47 198 1 gusting 2 0.6
2019-Dec-04 04:42 196 0 gusting 2 0.6
2019-Dec-04 04:37 198 1 gusting 6 0.6
2019-Dec-04 04:32 197 1 gusting 6 0.6
2019-Dec-04 04:27 215 2 gusting 6 0.6
2019-Dec-04 04:22 235 1 gusting 6 0.6
2019-Dec-04 04:17 230 0 gusting 4 0.6
2019-Dec-04 04:12 229 1 gusting 6 0.6
2019-Dec-04 04:07 218 1 gusting 6 -0.0
2019-Dec-04 04:02 219 2 gusting 5 -0.0
2019-Dec-04 03:57 208 2 gusting 5 -0.0
2019-Dec-04 03:52 234 1 gusting 4 -0.0
2019-Dec-04 03:47 246 2 gusting 4 -0.0
2019-Dec-04 03:42 197 1 gusting 4 -0.0
2019-Dec-04 03:37 194 0 gusting 5 -0.0
2019-Dec-04 03:32 236 1 gusting 5 -0.0
2019-Dec-04 03:27 259 0 gusting 5 -0.0
2019-Dec-04 03:22 240 1 gusting 5 -0.0
2019-Dec-04 03:17 242 2 gusting 5 -0.0
2019-Dec-04 03:12 221 1 gusting 5 -0.0
2019-Dec-04 03:07 206 1 gusting 4 -0.0
2019-Dec-04 03:02 232 1 gusting 2 -0.0